TimeMDT,TemperatureF,Dew PointF,Humidity,Sea Level PressureIn,VisibilityMPH,Wind Direction,Wind SpeedMPH,Gust SpeedMPH,PrecipitationIn,Events,Conditions,WindDirDegrees,DateUTC
12:53 AM,64.9,46.9,52,29.67,10.0,WSW,9.2,-,N/A,,Clear,250,2013-07-11 06:53:00
1:53 AM,72.0,41.0,33,29.64,10.0,SSW,10.4,-,N/A,,Clear,210,2013-07-11 07:53:00
2:53 AM,64.9,43.0,45,29.66,10.0,West,11.5,-,N/A,,Clear,270,2013-07-11 08:53:00
3:53 AM,59.0,46.9,64,29.67,10.0,West,8.1,-,N/A,,Clear,280,2013-07-11 09:53:00
4:53 AM,61.0,46.0,58,29.67,10.0,SW,9.2,-,N/A,,Clear,230,2013-07-11 10:53:00
5:53 AM,62.1,45.0,53,29.68,10.0,South,5.8,-,N/A,,Clear,190,2013-07-11 11:53:00
6:53 AM,66.0,46.9,50,29.70,10.0,SSW,4.6,-,N/A,,Clear,210,2013-07-11 12:53:00
7:53 AM,75.9,48.0,37,29.68,10.0,WSW,3.5,-,N/A,,Clear,240,2013-07-11 13:53:00
8:53 AM,78.1,46.9,33,29.69,10.0,South,6.9,-,N/A,,Clear,190,2013-07-11 14:53:00
9:53 AM,82.9,45.0,26,29.69,10.0,SW,5.8,-,N/A,,Clear,230,2013-07-11 15:53:00
10:53 AM,84.9,45.0,25,29.68,10.0,SW,8.1,-,N/A,,Clear,220,2013-07-11 16:53:00
11:53 AM,87.1,39.9,19,29.68,10.0,WSW,16.1,21.9,N/A,,Clear,240,2013-07-11 17:53:00
12:53 PM,87.1,41.0,20,29.68,10.0,SW,12.7,-,N/A,,Clear,220,2013-07-11 18:53:00
1:53 PM,86.0,39.0,19,29.66,10.0,West,16.1,21.9,N/A,,Clear,260,2013-07-11 19:53:00
2:53 PM,88.0,39.9,18,29.67,10.0,SW,18.4,26.5,N/A,,Clear,220,2013-07-11 20:53:00
3:53 PM,90.0,41.0,18,29.66,10.0,WSW,18.4,25.3,N/A,,Clear,250,2013-07-11 21:53:00
4:53 PM,89.1,39.9,18,29.65,10.0,WSW,15.0,25.3,N/A,,Clear,240,2013-07-11 22:53:00
5:53 PM,86.0,41.0,20,29.64,10.0,WSW,16.1,24.2,N/A,,Partly Cloudy,250,2013-07-11 23:53:00
6:53 PM,84.0,41.0,22,29.65,10.0,SW,16.1,-,N/A,,Scattered Clouds,230,2013-07-12 00:53:00
7:53 PM,80.1,42.1,26,29.66,10.0,SW,21.9,27.6,N/A,,Mostly Cloudy,220,2013-07-12 01:53:00
8:53 PM,75.9,41.0,29,29.68,10.0,WSW,16.1,27.6,N/A,,Partly Cloudy,240,2013-07-12 02:53:00
9:53 PM,73.9,41.0,30,29.71,10.0,SSW,23.0,29.9,0.00,,Overcast,200,2013-07-12 03:53:00
10:53 PM,71.1,39.9,32,29.73,10.0,SW,17.3,25.3,0.00,,Overcast,220,2013-07-12 04:53:00
11:53 PM,66.9,42.1,40,29.73,10.0,SSW,18.4,25.3,0.00,,Clear,200,2013-07-12 05:53:00